Latest Weather Observations for St Kilda Harbour RMYS

IDV60801

Issued at 12:31 pm EDT Friday 27 March 2015 (issued every 30 minutes, with the page automatically refreshed every 10 minutes)

About weather observations | Map of weather stations | Latest weather observations for VIC | Other Formats
Station Details ID: 086220 Name: ST KILDA HARBOUR - RMYS Lat: -37.86 Lon: 144.96 Height: 6.4 m
Data from the previous 72 hours. | See also: Recent months for locations in Victoria
Date/Time
EDT
Temp
°C
App
Temp
°C
Dew
Point
Rel
Hum
%
Delta-T
°C
Wind Press
QNH
hPa
Press
MSL
hPa
Rain
since 9 am
mm
Dir
 
Spd
km/h
Gust
km/h
Spd
kts
Gust
kts
27/12:30pm - - - - - SSW 37 43 20 23 - - -
27/12:00pm - - - - - SW 39 46 21 25 - - -
27/11:30am - - - - - WSW 39 48 21 26 - - -
27/11:00am - - - - - WSW 44 54 24 29 - - -
27/10:30am - - - - - WSW 44 52 24 28 - - -
27/10:00am - - - - - WSW 41 54 22 29 - - -
27/09:30am - - - - - WSW 41 52 22 28 - - -
27/09:00am - - - - - W 41 50 22 27 - - -
27/08:30am - - - - - WSW 44 56 24 30 - - -
27/08:00am - - - - - W 37 46 20 25 - - -
27/07:30am - - - - - W 39 50 21 27 - - -
27/07:00am - - - - - W 39 52 21 28 - - -
27/06:30am - - - - - W 35 46 19 25 - - -
27/06:16am - - - - - W 39 57 21 31 - - -
27/06:00am - - - - - W 35 52 19 28 - - -
27/05:30am - - - - - W 33 41 18 22 - - -
27/05:00am - - - - - W 30 39 16 21 - - -
27/04:30am - - - - - W 33 41 18 22 - - -
27/04:00am - - - - - W 37 44 20 24 - - -
27/03:30am - - - - - W 39 46 21 25 - - -
27/03:00am - - - - - W 39 46 21 25 - - -
27/02:30am - - - - - W 41 54 22 29 - - -
27/02:00am - - - - - W 43 56 23 30 - - -
27/01:30am - - - - - W 39 46 21 25 - - -
27/01:00am - - - - - W 39 52 21 28 - - -
27/12:30am - - - - - WNW 37 46 20 25 - - -
27/12:00am - - - - - W 33 43 18 23 - - -
 
Date/Time
EDT
Temp
°C
App
Temp
°C
Dew
Point
Rel
Hum
%
Delta-T
°C
Wind Press
QNH
hPa
Press
MSL
hPa
Rain
since 9 am
mm
Dir
 
Spd
km/h
Gust
km/h
Spd
kts
Gust
kts
26/11:30pm - - - - - WNW 33 41 18 22 - - -
26/11:00pm - - - - - WNW 39 50 21 27 - - -
26/10:30pm - - - - - W 39 52 21 28 - - -
26/10:00pm - - - - - WNW 39 50 21 27 - - -
26/09:30pm - - - - - WNW 39 48 21 26 - - -
26/09:00pm - - - - - WNW 39 50 21 27 - - -
26/08:30pm - - - - - WNW 43 52 23 28 - - -
26/08:00pm - - - - - NW 44 59 24 32 - - -
26/07:30pm - - - - - WNW 44 57 24 31 - - -
26/07:00pm - - - - - NW 54 67 29 36 - - -
26/06:32pm - - - - - WNW 46 65 25 35 - - -
26/06:30pm - - - - - WNW 48 65 26 35 - - -
26/06:00pm - - - - - WNW 50 72 27 39 - - -
26/05:40pm - - - - - WNW 54 74 29 40 - - -
26/05:30pm - - - - - WNW 54 69 29 37 - - -
26/05:00pm - - - - - WNW 43 70 23 38 - - -
26/04:48pm - - - - - NW 43 61 23 33 - - -
26/04:30pm - - - - - WNW 37 54 20 29 - - -
26/04:25pm - - - - - WNW 39 48 21 26 - - -
26/04:00pm - - - - - NW 37 52 20 28 - - -
26/03:30pm - - - - - WNW 41 56 22 30 - - -
26/03:04pm - - - - - NW 37 52 20 28 - - -
26/03:00pm - - - - - NNW 33 46 18 25 - - -
26/02:49pm - - - - - NW 32 56 17 30 - - -
26/02:30pm - - - - - NW 37 48 20 26 - - -
26/02:00pm - - - - - NW 41 54 22 29 - - -
26/01:30pm - - - - - NW 39 54 21 29 - - -
26/01:00pm - - - - - WNW 41 54 22 29 - - -
26/12:43pm - - - - - WNW 35 54 19 29 - - -
26/12:30pm - - - - - NW 35 44 19 24 - - -
26/12:00pm - - - - - WNW 35 43 19 23 - - -
26/11:30am - - - - - WNW 33 46 18 25 - - -
26/11:00am - - - - - WNW 35 48 19 26 - - -
26/10:30am - - - - - WNW 33 48 18 26 - - -
26/10:00am - - - - - WNW 32 39 17 21 - - -
26/09:30am - - - - - NW 22 30 12 16 - - -
26/09:00am - - - - - NNW 17 24 9 13 - - -
26/08:30am - - - - - NNW 15 20 8 11 - - -
26/08:00am - - - - - NNW 15 20 8 11 - - -
26/07:30am - - - - - N 17 20 9 11 - - -
26/07:00am - - - - - NNW 19 24 10 13 - - -
26/06:30am - - - - - NNW 19 24 10 13 - - -
26/06:00am - - - - - NW 24 32 13 17 - - -
26/05:30am - - - - - NNW 17 24 9 13 - - -
26/05:00am - - - - - NNW 15 22 8 12 - - -
26/04:30am - - - - - NNW 17 22 9 12 - - -
26/04:00am - - - - - WNW 28 37 15 20 - - -
26/03:30am - - - - - NW 26 39 14 21 - - -
26/03:00am - - - - - WNW 30 37 16 20 - - -
26/02:30am - - - - - W 32 43 17 23 - - -
26/02:00am - - - - - W 37 52 20 28 - - -
26/01:30am - - - - - WSW 44 54 24 29 - - -
26/01:00am - - - - - WSW 52 65 28 35 - - -
26/12:48am - - - - - WNW 39 69 21 37 - - -
26/12:43am - - - - - NNW 28 57 15 31 - - -
26/12:30am - - - - - N 24 35 13 19 - - -
26/12:00am - - - - - NNE 15 20 8 11 - - -
 
Date/Time
EDT
Temp
°C
App
Temp
°C
Dew
Point
Rel
Hum
%
Delta-T
°C
Wind Press
QNH
hPa
Press
MSL
hPa
Rain
since 9 am
mm
Dir
 
Spd
km/h
Gust
km/h
Spd
kts
Gust
kts
25/11:30pm - - - - - N 11 17 6 9 - - -
25/11:00pm - - - - - N 15 20 8 11 - - -
25/10:30pm - - - - - N 7 9 4 5 - - -
25/10:00pm - - - - - NNW 11 15 6 8 - - -
25/09:30pm - - - - - NW 7 13 4 7 - - -
25/09:00pm - - - - - ESE 2 6 1 3 - - -
25/08:30pm - - - - - ESE 7 9 4 5 - - -
25/08:00pm - - - - - SSE 11 13 6 7 - - -
25/07:30pm - - - - - S 13 15 7 8 - - -
25/07:00pm - - - - - S 17 19 9 10 - - -
25/06:30pm - - - - - S 19 20 10 11 - - -
25/06:00pm - - - - - S 13 28 7 15 - - -
25/05:30pm - - - - - SSE 15 20 8 11 - - -
25/05:00pm - - - - - SSE 22 26 12 14 - - -
25/04:30pm - - - - - S 26 28 14 15 - - -
25/04:00pm - - - - - S 28 30 15 16 - - -
25/03:30pm - - - - - S 20 24 11 13 - - -
25/03:00pm - - - - - S 17 19 9 10 - - -
25/02:30pm - - - - - SSW 13 15 7 8 - - -
25/02:00pm - - - - - S 7 9 4 5 - - -
25/01:30pm - - - - - S 11 13 6 7 - - -
25/01:00pm - - - - - S 11 17 6 9 - - -
25/12:30pm - - - - - SSW 17 20 9 11 - - -
25/12:00pm - - - - - SSW 13 15 7 8 - - -
25/11:30am - - - - - SSW 7 11 4 6 - - -
25/11:00am - - - - - WNW 4 6 2 3 - - -
25/10:30am - - - - - W 9 13 5 7 - - -
25/10:00am - - - - - W 15 20 8 11 - - -
25/09:30am - - - - - WSW 17 22 9 12 - - -
25/09:00am - - - - - SW 13 17 7 9 - - -
25/08:30am - - - - - WSW 17 20 9 11 - - -
25/08:00am - - - - - WSW 19 24 10 13 - - -
25/07:30am - - - - - W 22 26 12 14 - - -
25/07:00am - - - - - SSW 15 22 8 12 - - -
25/06:30am - - - - - SSW 20 30 11 16 - - -
25/06:00am - - - - - SSW 22 32 12 17 - - -
25/05:30am - - - - - SE 9 24 5 13 - - -
25/05:00am - - - - - W 20 28 11 15 - - -
25/04:30am - - - - - W 17 24 9 13 - - -
25/04:00am - - - - - W 20 24 11 13 - - -
25/03:30am - - - - - NW 6 9 3 5 - - -
25/03:00am - - - - - NNE 6 7 3 4 - - -
25/02:30am - - - - - NE 7 11 4 6 - - -
25/02:00am - - - - - ENE 9 13 5 7 - - -
25/01:30am - - - - - ENE 6 9 3 5 - - -
25/01:00am - - - - - E 9 13 5 7 - - -
25/12:30am - - - - - ESE 13 20 7 11 - - -
25/12:00am - - - - - SE 15 22 8 12 - - -
 
Date/Time
EDT
Temp
°C
App
Temp
°C
Dew
Point
Rel
Hum
%
Delta-T
°C
Wind Press
QNH
hPa
Press
MSL
hPa
Rain
since 9 am
mm
Dir
 
Spd
km/h
Gust
km/h
Spd
kts
Gust
kts
24/11:30pm - - - - - SE 15 22 8 12 - - -
24/11:00pm - - - - - SE 15 24 8 13 - - -
24/10:30pm - - - - - S 28 33 15 18 - - -
24/10:00pm - - - - - S 33 39 18 21 - - -
24/09:30pm - - - - - S 33 43 18 23 - - -
24/09:00pm - - - - - S 37 44 20 24 - - -
24/08:30pm - - - - - S 39 48 21 26 - - -
24/08:00pm - - - - - S 37 46 20 25 - - -
24/07:30pm - - - - - SSW 43 52 23 28 - - -
24/07:00pm - - - - - S 37 52 20 28 - - -
24/06:30pm - - - - - SSW 33 46 18 25 - - -
24/06:00pm - - - - - S 37 52 20 28 - - -
24/05:30pm - - - - - SSW 37 44 20 24 - - -
24/05:00pm - - - - - SSW 37 44 20 24 - - -
24/04:30pm - - - - - SSW 41 56 22 30 - - -
24/04:00pm - - - - - SSW 41 52 22 28 - - -
24/03:30pm - - - - - SSW 44 52 24 28 - - -
24/03:00pm - - - - - SSW 41 50 22 27 - - -
24/02:30pm - - - - - SSW 41 48 22 26 - - -
24/02:00pm - - - - - SSW 39 46 21 25 - - -
24/01:30pm - - - - - S 43 52 23 28 - - -
24/01:00pm - - - - - SSW 35 50 19 27 - - -

Other Formats:

Comma delimited format used in spreadsheet applications
http://www.bom.gov.au/fwo/IDV60801/IDV60801.95864.axf

JavaScript Object Notation format (JSON) in row-major order
http://www.bom.gov.au/fwo/IDV60801/IDV60801.95864.json